Flag for U.S.A. Weather past 2 weeks in Unalaska, Alaska, U.S.A.

38 °F

Light rain. Overcast.

Feels Like: 28 °F
Forecast: 35 / 41 °F
Wind: 17 mph from Southeast

Location: Dutch Harbor

Current Time: Nov 29, 2015 at 1:35:11 AM

Latest Report: Nov 29, 2015 at 12:56 AM

Visibility: 10 mi

Pressure: 29.20 "Hg

Humidity: 79%

Dew point: 32 °F

Location of UnalaskaLocation

Historic Weather in Unalaska — Graph


Unalaska temperature yesterday

Maximum temperature yesterday: 39 °F (at 5:57 AM)
Minimum temperature yesterday: 35 °F (at 6:56 AM)
Average temperature yesterday: 37 °F

Past Weeks' High & Low Weather Summary

High49 °F (Nov 19, 12:56 AM)93% (Nov 26, 8:56 PM)30.43 "Hg (Nov 26, 8:56 PM)
Low32 °F (Nov 25, 9:56 AM)48% (Nov 21, 1:56 AM)28.81 "Hg (Nov 26, 4:57 PM)
Average39 °F72%29.73 "Hg
* Reported Nov 13 11:56 PM — Nov 28 11:56 PM, Unalaska, Weather by CustomWeather, © 2015

Note: Actual official high and low records may vary slightly from our data, if they occured in-between our weather recording intervals... More about our weather records


Unalaska weather history for previous 24 hours

Time TempWeatherWind HumidityBarometerVisibility
11:56 PM
Sat, Nov 28
37 °FLight rain. Overcast.17 mph82%29.24 "Hg10 mi
10:56 PM36 °FLight rain. Partly cloudy.10 mph82%29.29 "Hg10 mi
9:56 PM36 °FLight rain. Mostly cloudy.12 mph82%29.33 "Hg10 mi
8:56 PM37 °FOvercast.3 mph70%29.36 "Hg10 mi
7:56 PM37 °FMostly cloudy.6 mph67%29.39 "Hg10 mi
6:56 PM36 °FOvercast.6 mph67%29.42 "Hg10 mi
5:56 PM36 °FMostly cloudy.No wind64%29.45 "Hg10 mi
4:59 PM36 °FMore clouds than sun.6 mph70%29.45 "Hg10 mi
3:56 PM37 °FBroken clouds.5 mph62%29.49 "Hg10 mi
2:56 PM37 °FBroken clouds.10 mph65%29.52 "Hg10 mi
2:01 PM37 °FScattered clouds.8 mph70%29.52 "Hg10 mi
1:04 PM36 °FBroken clouds.3 mph75%29.54 "Hg10 mi
12:56 PM35 °FScattered clouds.6 mph78%29.55 "Hg10 mi
11:56 AM36 °FScattered clouds.7 mph73%29.56 "Hg10 mi
10:56 AM36 °FScattered clouds.7 mph73%29.57 "Hg10 mi
9:56 AM36 °FBroken clouds.6 mph70%29.56 "Hg10 mi
7:56 AM38 °FLight snow. Mostly cloudy.13 mph65%29.54 "Hg10 mi
6:56 AM35 °FLight snow. Fog.16 mph78%29.52 "Hg6 mi
5:57 AM39 °FMostly cloudy.18 mph61%29.48 "Hg10 mi
4:56 AM38 °FPassing clouds.22 mph68%29.48 "Hg10 mi
3:56 AM39 °FMostly cloudy.24 mph62%29.46 "Hg10 mi
2:56 AM37 °FLight rain. Mostly cloudy.21 mph73%29.43 "Hg10 mi
1:56 AM38 °FLight rain. Mostly cloudy.29 mph65%29.40 "Hg10 mi
Weather by CustomWeather, © 2015

See weather overviewHow to use our weather pages